Regional Weather Roundup
Issued by NWS Northern Indiana

Home | Current Version | Previous Version | Graphics & Text | Print | Product List | Glossary On
Versions: 1 2 3 4 5 6 7 8 9 10 11 12 13 14 15 16 17 18 19 20 21 22 23 24 25 26 27 28 29 30 31 32 33 34 35 36 37 38 39 40 41 42 43 44 45 46 47 48 49 50
687
ASUS43 KIWX 240310
RWRIWX

KIWX WEATHER ROUNDUP
NATIONAL WEATHER SERVICE NORTHERN INDIANA
1100 PM EDT SAT SEP 23 2017

NOTE: "FAIR" INDICATES FEW OR NO CLOUDS BELOW 12,000 FEET WITH NO
SIGNIFICANT WEATHER AND/OR OBSTRUCTIONS TO VISIBILITY.

* THESE STATIONS ARE NOT UNDER NWS QUALITY CONTROL. THEY ALSO MAY NOT
  REPORT WEATHER SUCH AS PRECIPITATION OR FOG.

INZ001>027-240400-
NORTHERN INDIANA

CITY           SKY/WX    TMP DP  RH WIND       PRES   REMARKS
GARY*          CLEAR     70  66  88 CALM      30.07R
VALPARAISO     CLEAR     74  66  76 E3        30.08R
MICHIGAN CITY* CLEAR     72  64  78 CALM      30.08S
LAPORTE*       CLEAR     69  65  90 E3        30.09S
KNOX*          CLEAR     70  64  83 CALM      30.07S
SOUTH BEND     CLEAR     73  66  78 CALM      30.09S
GOSHEN         CLEAR     70  64  81 CALM      30.10R
MONTICELLO*    CLEAR     72  68  87 CALM      30.06S
LOGANSPORT*    CLEAR     68  63  83 CALM      30.08S
WARSAW*        CLEAR     70  66  88 CALM      30.10R
AUBURN*        CLEAR     72  61  68 E3        30.11S
FORT WAYNE     CLEAR     69  62  78 E3        30.11R
HUNTINGTON*    CLEAR     70  63  77 CALM      30.09S
PERU/GRISSOM   CLEAR     75  63  67 CALM      30.07R
MARION*        CLEAR     72  63  73 E6        30.10S

$$
INZ028>050-240400-
CENTRAL INDIANA

CITY           SKY/WX    TMP DP  RH WIND       PRES   REMARKS
LAFAYETTE      CLEAR     71  67  87 CALM      30.05S
KOKOMO*        CLEAR     71  65  81 E3        30.09R
MUNCIE*        CLEAR     68  64  87 SE3       30.09S
INDIANAPOLIS   CLEAR     78  62  57 SE3       30.07S

$$
MIZ043>046-050>051-056>058-064>065-071>073-077>080-240400-
SOUTHWEST LOWER MICHIGAN

CITY           SKY/WX    TMP DP  RH WIND       PRES   REMARKS
BATTLE CREEK   CLEAR     76  62  62 SE5       30.13R
BENTON HARBOR  CLEAR     75  64  68 SE6       30.08R
COLDWATER*     CLEAR     74  61  65 CALM      30.13R
HILLSDALE*     CLEAR     70  59  68 SE5       30.13S
HOLLAND        CLEAR     69  64  84 CALM      30.10R
GRAND RAPIDS   CLEAR     75  61  61 SE3       30.10R
KALAMAZOO      CLEAR     70  62  76 CALM      30.11R
STURGIS*       CLEAR     75  64  67 SE7       30.11S
THREE RIVERS*  FAIR      71  65  82 CALM      30.11S

$$
OHZ001>008-015>018-024>025-240400-
NORTHWEST OHIO

CITY           SKY/WX    TMP DP  RH WIND       PRES   REMARKS
WAUSEON*         N/A     68  63  83 NE5       30.11S
DEFIANCE       CLEAR     69  61  75 CALM      30.11R
FINDLAY        CLEAR     74  55  51 E7        30.11R
TOLEDO EXPRESS CLEAR     68  65  90 CALM      30.11S
TOLEDO METCALF CLEAR     70  61  73 E6        30.12R
LIMA           CLEAR     69  60  73 E7        30.11S

$$
AND FOR LAKE MICHIGAN COASTAL AND OPEN LAKE BUOY OBSERVATIONS

STATION/POSITION TEMP    WIND        PRES    VSBY  WAVE
                 AIR SEA DIR/SP/G                  HT/PER
                 (F)     (DEG/KT/KT) (MB)    (MI)  (FT/S)
CALUMET HARBOR    77     100/  4/  6 1017.2S
MICHIGAN CITY     78     120/  6/  8   N/A
BURNS HARBOR      84     140/  8/ 15 1018.3R
SAINT JOSEPH      76      CALM  /  1 1018.6
SOUTH LAKE BUOY   74 72   80/  6/  8 1018.0R         0
4 MI NW BRIDGMAN  76 74  160/  4/  4 1017.9          0
MICHIGAN CITY     76 73  140/  4/  6   N/A           0

$$
&&




USA.gov is the U.S. government's official web portal to all federal, state and local government web resources and services.